PAL113 RPVK-RPLL

Flight info

Callsign PAL113
Flight time 0h 48m
Altitude 26000
Route MINOR3D MINOR B473 LAIYA LAIYA5R
Aircraft A321/M-SDE3FGHIRWY/LB1

Departure

Time 2026-04-25 14:48
Airport Kalibo International Airport (RPVK)

Arrival

Time 2026-04-25 15:37
Airport Ninoy Aquino International Airport (RPLL)
Time Latitude Longitude Altitude Speed Heading
2026-04-25 14:17 11.68473 122.38010 19 ft 0 kts 349°
2026-04-25 14:19 11.68472 122.38010 19 ft 0 kts 349°
2026-04-25 14:41 11.68475 122.38012 21 ft 1 kts 18°
2026-04-25 14:41 11.68477 122.38016 21 ft 1 kts 48°
2026-04-25 14:41 11.68476 122.38019 20 ft 0 kts 72°
2026-04-25 14:42 11.68478 122.38026 18 ft 2 kts 74°
2026-04-25 14:42 11.68481 122.38037 19 ft 3 kts 74°
2026-04-25 14:42 11.68483 122.38047 20 ft 0 kts 89°
2026-04-25 14:42 11.68470 122.38057 20 ft 2 kts 138°
2026-04-25 14:43 11.68466 122.38060 20 ft 0 kts 138°
2026-04-25 14:43 11.68461 122.38062 17 ft 1 kts 163°
2026-04-25 14:43 11.68454 122.38058 16 ft 3 kts 201°
2026-04-25 14:43 11.68426 122.38029 20 ft 8 kts 225°
2026-04-25 14:44 11.68407 122.38015 19 ft 0 kts 198°
2026-04-25 14:45 11.68380 122.38021 19 ft 9 kts 143°
2026-04-25 14:45 11.68385 122.38060 18 ft 6 kts 59°
2026-04-25 14:45 11.68413 122.38094 18 ft 7 kts 49°
2026-04-25 14:45 11.68449 122.38134 19 ft 8 kts 48°
2026-04-25 14:46 11.68488 122.38179 20 ft 9 kts 47°
2026-04-25 14:46 11.68530 122.38226 21 ft 9 kts 48°
2026-04-25 14:46 11.68576 122.38278 20 ft 10 kts 48°
2026-04-25 14:46 11.68629 122.38334 21 ft 11 kts 42°
2026-04-25 14:47 11.68672 122.38384 21 ft 2 kts 105°
2026-04-25 14:47 11.68662 122.38393 22 ft 2 kts 151°
2026-04-25 14:47 11.68654 122.38383 24 ft 2 kts 231°
2026-04-25 14:47 11.68640 122.38364 21 ft 6 kts 231°
2026-04-25 14:48 11.68461 122.38141 19 ft 85 kts 229°
2026-04-25 14:48 11.67894 122.37485 20 ft 158 kts 226°
2026-04-25 14:48 11.67091 122.36533 482 ft 181 kts 228°
2026-04-25 14:48 11.66271 122.35562 1388 ft 183 kts 233°
2026-04-25 14:49 11.65926 122.34245 1878 ft 209 kts 278°
2026-04-25 14:49 11.66629 122.32913 2283 ft 227 kts 323°
2026-04-25 14:49 11.68087 122.32236 2474 ft 239 kts 352°
2026-04-25 14:49 11.69804 122.32007 2608 ft 258 kts 359°
2026-04-25 14:50 11.71653 122.31883 2740 ft 276 kts 360°
2026-04-25 14:50 11.73623 122.31727 2851 ft 291 kts 358°
2026-04-25 14:50 11.75667 122.31498 3044 ft 299 kts 355°
2026-04-25 14:50 11.77737 122.31197 3330 ft 302 kts 354°
2026-04-25 14:51 11.79815 122.30846 3638 ft 304 kts 353°
2026-04-25 14:51 11.81880 122.30351 3924 ft 309 kts 340°
2026-04-25 14:51 11.83727 122.29262 4187 ft 313 kts 328°
2026-04-25 14:51 11.85529 122.28004 4505 ft 314 kts 327°
2026-04-25 14:52 11.87333 122.26734 4796 ft 316 kts 328°
2026-04-25 14:52 11.89302 122.25805 5053 ft 312 kts 350°
2026-04-25 14:52 11.91437 122.25771 5310 ft 306 kts 15°
2026-04-25 14:52 11.92797 122.26231 5472 ft 305 kts 25°
2026-04-25 14:53 11.95358 122.27416 5823 ft 306 kts 27°
2026-04-25 14:53 11.97289 122.28348 6076 ft 308 kts 27°
2026-04-25 14:53 11.99229 122.29287 6323 ft 309 kts 27°
2026-04-25 14:53 12.01179 122.30235 6557 ft 311 kts 27°
2026-04-25 14:54 12.03130 122.31188 6800 ft 312 kts 27°
2026-04-25 14:54 12.05089 122.32151 7028 ft 313 kts 27°
2026-04-25 14:54 12.07051 122.33122 7248 ft 314 kts 27°
2026-04-25 14:54 12.09022 122.34103 7461 ft 316 kts 27°
2026-04-25 14:55 12.11003 122.35082 7691 ft 317 kts 25°
2026-04-25 14:55 12.13145 122.35636 7889 ft 321 kts
2026-04-25 14:55 12.15360 122.35351 8083 ft 325 kts 342°
2026-04-25 14:55 12.17401 122.34348 8279 ft 327 kts 332°
2026-04-25 14:56 12.19405 122.33227 8489 ft 328 kts 332°
2026-04-25 14:56 12.21408 122.32096 8696 ft 329 kts 332°
2026-04-25 14:56 12.23413 122.30965 8904 ft 330 kts 332°
2026-04-25 14:56 12.25397 122.29848 9098 ft 330 kts 332°
2026-04-25 14:57 12.27441 122.28701 9293 ft 331 kts 332°
2026-04-25 14:57 12.29439 122.27586 9485 ft 332 kts 332°
2026-04-25 14:57 12.31471 122.26452 9669 ft 333 kts 332°
2026-04-25 14:57 12.33505 122.25315 9842 ft 334 kts 332°
2026-04-25 14:58 12.35544 122.24178 9996 ft 334 kts 332°
2026-04-25 14:58 12.37551 122.22967 10139 ft 335 kts 326°
2026-04-25 14:58 12.39482 122.21623 10286 ft 336 kts 326°
2026-04-25 14:58 12.41421 122.20275 10431 ft 337 kts 326°
2026-04-25 14:59 12.43362 122.18928 10579 ft 338 kts 326°
2026-04-25 14:59 12.45309 122.17577 10720 ft 338 kts 326°
2026-04-25 14:59 12.47259 122.16224 10856 ft 339 kts 326°
2026-04-25 14:59 12.49215 122.14863 10994 ft 340 kts 326°
2026-04-25 15:00 12.51169 122.13500 11128 ft 341 kts 326°
2026-04-25 15:00 12.53130 122.12133 11265 ft 341 kts 326°
2026-04-25 15:00 12.55096 122.10765 11406 ft 342 kts 326°
2026-04-25 15:00 12.57065 122.09398 11535 ft 342 kts 326°
2026-04-25 15:01 12.59036 122.08034 11665 ft 343 kts 326°
2026-04-25 15:01 12.61011 122.06662 11779 ft 344 kts 326°
2026-04-25 15:01 12.62990 122.05283 11900 ft 344 kts 326°
2026-04-25 15:01 12.64945 122.03924 12018 ft 345 kts 326°
2026-04-25 15:02 12.66935 122.02542 12140 ft 345 kts 326°
2026-04-25 15:02 12.68919 122.01161 12268 ft 346 kts 326°
2026-04-25 15:02 12.70909 121.99773 12392 ft 346 kts 326°
2026-04-25 15:02 12.72899 121.98385 12508 ft 346 kts 326°
2026-04-25 15:03 12.74888 121.96999 12647 ft 346 kts 326°
2026-04-25 15:03 12.76881 121.95611 12769 ft 346 kts 326°
2026-04-25 15:03 12.78874 121.94223 12897 ft 346 kts 326°
2026-04-25 15:03 12.80867 121.92835 13023 ft 346 kts 325°
2026-04-25 15:04 12.82857 121.91447 13145 ft 346 kts 325°
2026-04-25 15:04 12.84853 121.90058 13275 ft 346 kts 325°
2026-04-25 15:04 12.86850 121.88670 13399 ft 346 kts 325°
2026-04-25 15:04 12.88838 121.87287 13529 ft 346 kts 325°
2026-04-25 15:05 12.90826 121.85901 13654 ft 346 kts 325°
2026-04-25 15:05 12.92811 121.84515 13775 ft 345 kts 325°
2026-04-25 15:05 12.94797 121.83129 13891 ft 345 kts 325°
2026-04-25 15:06 12.98738 121.80378 14111 ft 345 kts 325°
2026-04-25 15:06 13.00719 121.78997 14224 ft 344 kts 325°
2026-04-25 15:06 13.02702 121.77613 14339 ft 344 kts 325°
2026-04-25 15:06 13.04683 121.76231 14451 ft 344 kts 325°
2026-04-25 15:07 13.06659 121.74852 14570 ft 344 kts 325°
2026-04-25 15:07 13.08638 121.73469 14684 ft 344 kts 325°
2026-04-25 15:07 13.10614 121.72086 14798 ft 344 kts 325°
2026-04-25 15:07 13.12521 121.70751 14905 ft 343 kts 325°
2026-04-25 15:08 13.14493 121.69374 15022 ft 343 kts 325°
2026-04-25 15:08 13.16468 121.67993 15141 ft 343 kts 325°
2026-04-25 15:08 13.17772 121.67079 15215 ft 343 kts 325°
2026-04-25 15:08 13.20405 121.65232 15371 ft 343 kts 325°
2026-04-25 15:09 13.22375 121.63851 15491 ft 343 kts 325°
2026-04-25 15:09 13.24346 121.62474 15612 ft 343 kts 325°
2026-04-25 15:09 13.28291 121.59720 15848 ft 342 kts 325°
2026-04-25 15:10 13.30260 121.58347 15964 ft 342 kts 325°
2026-04-25 15:10 13.32230 121.56968 16085 ft 342 kts 325°
2026-04-25 15:10 13.35498 121.54677 16287 ft 342 kts 325°
2026-04-25 15:11 13.37463 121.53299 16410 ft 342 kts 325°
2026-04-25 15:11 13.40069 121.51472 16569 ft 342 kts 325°
2026-04-25 15:11 13.41398 121.50541 16652 ft 342 kts 325°
2026-04-25 15:12 13.45966 121.47339 16933 ft 342 kts 324°
2026-04-25 15:12 13.47931 121.45962 17064 ft 342 kts 325°
2026-04-25 15:12 13.49892 121.44587 17181 ft 341 kts 324°
2026-04-25 15:12 13.50556 121.44121 17228 ft 341 kts 324°
2026-04-25 15:13 13.53181 121.42282 17392 ft 341 kts 324°
2026-04-25 15:13 13.57093 121.39529 17645 ft 341 kts 324°
2026-04-25 15:13 13.59036 121.38135 17769 ft 340 kts 323°
2026-04-25 15:14 13.60956 121.36716 17898 ft 340 kts 323°
2026-04-25 15:14 13.62866 121.35280 18026 ft 340 kts 322°
2026-04-25 15:14 13.64772 121.33843 18156 ft 340 kts 323°
2026-04-25 15:14 13.66440 121.32590 18258 ft 340 kts 323°
2026-04-25 15:16 13.68099 121.31355 18360 ft 341 kts 323°
2026-04-25 15:16 13.70025 121.29917 18471 ft 342 kts 323°
2026-04-25 15:16 13.73880 121.27032 18395 ft 342 kts 323°
2026-04-25 15:17 13.77659 121.24206 16963 ft 331 kts 323°
2026-04-25 15:17 13.79515 121.22823 16235 ft 327 kts 323°
2026-04-25 15:17 13.81369 121.21484 15526 ft 324 kts 329°
2026-04-25 15:18 13.83472 121.20738 14877 ft 320 kts 353°
2026-04-25 15:18 13.87876 121.20514 13492 ft 315 kts 357°
2026-04-25 15:18 13.90057 121.20411 12775 ft 312 kts 357°
2026-04-25 15:19 13.92212 121.20307 12095 ft 308 kts 357°
2026-04-25 15:19 13.93620 121.20235 11655 ft 305 kts 357°
2026-04-25 15:19 13.96409 121.20089 11095 ft 289 kts 357°
2026-04-25 15:19 13.98355 121.19987 11010 ft 289 kts 357°
2026-04-25 15:20 14.00409 121.19878 11013 ft 299 kts 357°
2026-04-25 15:20 14.02496 121.19767 11012 ft 302 kts 357°
2026-04-25 15:20 14.04595 121.19655 11010 ft 302 kts 357°
2026-04-25 15:20 14.06691 121.19542 10830 ft 298 kts 357°
2026-04-25 15:21 14.08750 121.19431 10180 ft 295 kts 357°
2026-04-25 15:21 14.10790 121.19319 9515 ft 292 kts 357°
2026-04-25 15:21 14.12748 121.18915 9100 ft 288 kts 334°
2026-04-25 15:21 14.14334 121.17656 8998 ft 290 kts 308°
2026-04-25 15:22 14.15205 121.15809 9008 ft 293 kts 283°
2026-04-25 15:22 14.15544 121.13740 9006 ft 294 kts 278°
2026-04-25 15:22 14.15793 121.11690 8602 ft 290 kts 277°
2026-04-25 15:22 14.16030 121.09633 7908 ft 288 kts 277°
2026-04-25 15:23 14.16259 121.07590 7275 ft 286 kts 277°
2026-04-25 15:23 14.16479 121.05560 7057 ft 286 kts 277°
2026-04-25 15:23 14.16700 121.03498 6993 ft 290 kts 277°
2026-04-25 15:23 14.16919 121.01440 6998 ft 289 kts 277°
2026-04-25 15:24 14.17135 120.99384 6999 ft 288 kts 277°
2026-04-25 15:24 14.17350 120.97328 7000 ft 289 kts 277°
2026-04-25 15:24 14.17560 120.95269 7001 ft 289 kts 277°
2026-04-25 15:24 14.17700 120.93906 7001 ft 289 kts 277°
2026-04-25 15:25 14.17984 120.91150 6998 ft 289 kts 277°
2026-04-25 15:25 14.18197 120.89128 6795 ft 285 kts 277°
2026-04-25 15:25 14.18410 120.87101 6140 ft 284 kts 277°
2026-04-25 15:25 14.18625 120.85085 5468 ft 283 kts 277°
2026-04-25 15:26 14.18848 120.83077 5090 ft 281 kts 277°
2026-04-25 15:26 14.19075 120.81067 4980 ft 283 kts 277°
2026-04-25 15:26 14.19301 120.79050 4994 ft 284 kts 277°
2026-04-25 15:26 14.19531 120.77026 4994 ft 284 kts 277°
2026-04-25 15:27 14.19698 120.75550 4994 ft 284 kts 277°
2026-04-25 15:27 14.19908 120.73844 4992 ft 284 kts 277°
2026-04-25 15:27 14.20377 120.69801 5004 ft 284 kts 277°
2026-04-25 15:28 14.20609 120.67783 4985 ft 283 kts 277°
2026-04-25 15:28 14.20867 120.65777 4980 ft 279 kts 283°
2026-04-25 15:28 14.21538 120.63925 4984 ft 275 kts 296°
2026-04-25 15:28 14.22455 120.62204 4988 ft 273 kts 309°
2026-04-25 15:29 14.23855 120.60936 4990 ft 268 kts 333°
2026-04-25 15:29 14.25605 120.60357 4992 ft 264 kts 357°
2026-04-25 15:29 14.27411 120.60540 4990 ft 261 kts 20°
2026-04-25 15:29 14.28982 120.61433 4995 ft 258 kts 43°
2026-04-25 15:30 14.30085 120.62874 4992 ft 256 kts 65°
2026-04-25 15:30 14.30782 120.64564 4993 ft 257 kts 68°
2026-04-25 15:30 14.31469 120.66265 4991 ft 257 kts 68°
2026-04-25 15:30 14.32156 120.67964 4993 ft 257 kts 68°
2026-04-25 15:31 14.32889 120.69643 4997 ft 257 kts 61°
2026-04-25 15:31 14.33776 120.71249 5001 ft 258 kts 60°
2026-04-25 15:31 14.34668 120.72848 5001 ft 258 kts 60°
2026-04-25 15:31 14.35562 120.74449 5000 ft 257 kts 60°
2026-04-25 15:32 14.36453 120.76048 5001 ft 258 kts 61°
2026-04-25 15:32 14.37311 120.77591 5000 ft 258 kts 61°
2026-04-25 15:32 14.38227 120.79238 5002 ft 258 kts 61°
2026-04-25 15:33 14.40007 120.82440 5002 ft 257 kts 61°
2026-04-25 15:33 14.40898 120.84042 5005 ft 257 kts 61°
2026-04-25 15:33 14.41774 120.85616 4989 ft 241 kts 61°
2026-04-25 15:33 14.42574 120.87051 4771 ft 222 kts 62°
2026-04-25 15:34 14.43329 120.88407 4164 ft 215 kts 61°
2026-04-25 15:34 14.44056 120.89714 3766 ft 202 kts 61°
2026-04-25 15:34 14.44726 120.90918 3535 ft 188 kts 61°
2026-04-25 15:34 14.45151 120.91683 3262 ft 184 kts 62°
2026-04-25 15:35 14.46599 120.94287 2258 ft 174 kts 61°
2026-04-25 15:35 14.47152 120.95288 2053 ft 155 kts 64°
2026-04-25 15:35 14.47694 120.96259 1553 ft 157 kts 55°
2026-04-25 15:36 14.48827 120.98283 450 ft 163 kts 61°
2026-04-25 15:36 14.49373 120.99228 325 ft 144 kts 62°
2026-04-25 15:36 14.49866 121.00124 103 ft 143 kts 57°
2026-04-25 15:37 14.50274 121.00897 65 ft 105 kts 59°
2026-04-25 15:37 14.50581 121.01438 63 ft 59 kts 61°
2026-04-25 15:37 14.50739 121.01707 60 ft 28 kts 39°
2026-04-25 15:37 14.50862 121.01784 68 ft 12 kts
2026-04-25 15:38 14.50888 121.01775 66 ft 1 kts 326°
2026-04-25 15:38 14.50897 121.01769 60 ft 3 kts 323°
2026-04-25 15:38 14.50915 121.01753 61 ft 5 kts 317°
2026-04-25 15:38 14.50950 121.01710 64 ft 10 kts 296°
2026-04-25 15:39 14.50915 121.01607 65 ft 20 kts 238°
2026-04-25 15:39 14.50883 121.01527 66 ft 4 kts 307°
2026-04-25 15:39 14.50940 121.01459 62 ft 3 kts 315°
2026-04-25 15:39 14.50944 121.01455 64 ft 0 kts 315°
2026-04-25 15:43 14.50943 121.01455 64 ft 0 kts 315°